Regional Weather Roundup
Issued by NWS

Home | Current Version | Previous Version | Graphics & Text | Print | Product List | Glossary On
Versions: 1 2 3 4 5 6 7 8 9 10 11 12 13 14 15 16 17 18 19 20 21 22 23 24 25 26 27 28 29 30 31 32 33 34 35 36 37 38 39 40 41 42 43 44 45 46 47 48 49 50
000
ASUS45 KTFX 301719
RWRMT
MONTANA HOURLY WEATHER ROUNDUP
NATIONAL WEATHER SERVICE GREAT FALLS MT
1119 AM MDT TUE SEP 30 2014

NOTE: "FAIR" INDICATES FEW OR NO CLOUDS BELOW 12000 FEET WITH NO
SIGNIFICANT WEATHER AND/OR OBSTRUCTIONS TO VISIBILITY.

* THESE STATIONS ARE NOT UNDER NWS QUALITY CONTROL. THEY DO NOT
   REPORT WEATHER SUCH AS PRECIPITATION OR FOG.

MTZ001>007-043-301800-
WEST OF THE DIVIDE
CITY           SKY/WX    TMP DP  RH WIND       PRES   REMARKS
KALISPELL      LGT RAIN  52  48  86 S10       29.79R
MISSOULA       PTSUNNY   55  46  72 W7        29.86S
BUTTE          LGT RAIN  48  43  83 NE5       29.86S
MULLAN PASS    FOG       36  36 100 W8G20     29.90R VSB M1/4 WCI  30
* ESSEX        N/A       50  44  80 S6         N/A
* LINCOLN      N/A       50  44  80 SW4G12     N/A
* LOOKOUT PASS N/A       41  38  89 E4G10      N/A
* POLSON       N/A       50  50 100 SE2        N/A
* RONAN APT    PTSUNNY   54  50  86 N/A        N/A
* SEELEY LAKE  N/A       51  47  86 W2         N/A
* THOMP F APT  PTCLDY    41  40  96 S3         N/A
* YAAK HILL    N/A       54  50  86 SW3G8      N/A
$$

MTZ008-052>055-301800-
SOUTHWEST MONTANA
CITY           SKY/WX    TMP DP  RH WIND       PRES   REMARKS
BOZEMAN        CLOUDY    54  45  72 NE3       29.82S
DILLON         CLOUDY    52  41  66 SW15      29.85R
W YELLOWSTONE  CLOUDY    45  39  80 SW16G25   29.91S
* THREE FORKS  CLOUDY    54  34  47 N/A        N/A
* BOULDER HILL N/A       49  35  59 SW9        N/A
* MONIDA PASS  N/A       41  41 100 SE12       N/A
* RAYNOLDS PAS N/A       43  25  49 S9         N/A
* WHITEHALL    N/A       55  41  59 SW9G14     N/A
* WISE RIVER   N/A       49  39  69 W11G17     N/A
$$

MTZ009>010-012-014-046-048-049-054-301800-
EAST SLOPES AND CENTRAL MONTANA
CITY           SKY/WX    TMP DP  RH WIND       PRES   REMARKS
CUT BANK       PTCLDY    64  41  43 W25G32    29.67R
GREAT FALLS    CLOUDY    57  45  64 SW16      29.70S
HELENA         CLOUDY    55  45  69 SW15      29.80R
MALMSTROM AFB  PTSUNNY   59  45  60 SW20      29.71S
* CONRAD       PTCLDY    64  46  52 W15G22     N/A
* DEARBORN     N/A       58  43  58 S12G21     N/A
* EAST GLACIER N/A       48  42  80 W20G29     N/A
* MONARCH      N/A       51  36  57 SW16       N/A
* PENDROY      N/A       59  38  46 W13G18     N/A
* ROGERS PASS  N/A       45  41  86 SE12G20    N/A
* SAINT MARY   N/A       50  42  74 S6G22      N/A
* WHITE SULPH  N/A       49  41  74 S4         N/A
$$

MTZ011-013-016-021-035-040-045-047-050-051-301800-
NORTH CENTRAL MONTANA
CITY           SKY/WX    TMP DP  RH WIND       PRES   REMARKS
LEWISTOWN      CLOUDY    54  46  74 SW5       29.72R
* CHINOOK      PTCLDY    66  46  49 SW15G23   29.59S
* FORT BENTON  CLOUDY    61  46  58 SW8       29.68R
* CHESTER      N/A       60  45  58 W13G22     N/A
* DENTON       N/A       57  44  62 W10        N/A
* GEYSER       N/A       57  41  55 W13        N/A
* JUDITH GAP   N/A       53  44  72 E1         N/A
* LOMA         N/A       58  48  70 SW7G16     N/A
$$

MTZ017>020-022>027-061-062-301800-
NORTHEAST MONTANA
CITY           SKY/WX    TMP DP  RH WIND       PRES   REMARKS
GLASGOW        CLOUDY    55  50  83 S5        29.61F
GLENDIVE       CLOUDY    55  54  96 NW6       29.62F
JORDAN         PTSUNNY   66  50  56 NW13      29.61F
SIDNEY         CLOUDY    55  54  96 E6        29.62F
WOLF POINT     CLOUDY    57  52  83 E7        29.63F
* BEAVER HILL  N/A       55  53  93 NE3G8      N/A
* CIRCLE       N/A       56  52  87 N/A        N/A
* LINDSAY DVD  N/A       52  52 100 E4         N/A
* NAVAJO       N/A       51  51 100 S11        N/A
$$

MTZ028>042-056>058-301800-
SOUTHCENTRAL AND SOUTHEAST MONTANA
CITY           SKY/WX    TMP DP  RH WIND       PRES   REMARKS
BAKER          CLOUDY    54  52  93 NE9       29.60S
BILLINGS       PTSUNNY   61  43  52 NW20G26   29.70F
LIVINGSTON     CLOUDY    55  41  59 W16       29.78R
MILES CITY     CLOUDY    57  50  78 NW8       29.62F
* LAUREL APT   PTSUNNY   61  37  41 W10G21     N/A
* ROUNDUP APT  CLOUDY    55  46  72 S6         N/A
* ALZADA       N/A       52  52 100 W14G19     N/A
* HYSHAM       N/A       56  43  62 W9         N/A
* LAME DEER    N/A       51  44  77 W16        N/A
* REED POINT   N/A       59  39  48 W18        N/A
* ROSCOE HILL  N/A       56  28  34 W7G17      N/A
$$

REGIONAL REPORTS...DAKOTAS
CITY           SKY/WX    TMP DP  RH WIND       PRES   REMARKS
WILLISTON      LGT RAIN  55  52  90 E7        29.62F
DICKINSON      FOG       52  50  93 E14       29.58F VSB 1 3/4
BEACH          N/A       54  54 100 E9        29.61F
CROSBY         CLOUDY    54  54 100 SE9       29.64F
TIOGA          LGT RAIN  50  50 100 SE13G18   29.68F VSB 3
WATFORD CITY   LGT RAIN  52  52 100 E10       29.60F VSB 3
BISMARCK       CLOUDY    52  50  93 E20       29.64F
GRAND FORKS    PTSUNNY   54  45  72 SE18G25   29.85F
FARGO          PTSUNNY   55  43  64 SE15G25   29.86F
BUFFALO SD     CLOUDY    54  52  93 NE13      29.47F
RAPID CITY     LGT RAIN  54  52  93 W10       29.46R
$$

REGIONAL REPORTS...WYOMING/IDAHO/WASHINGTON
CITY           SKY/WX    TMP DP  RH WIND       PRES   REMARKS
GILLETTE       CLOUDY    52  48  86 NW17      29.68F
SHERIDAN       CLOUDY    59  43  56 N16G23    29.71F
CODY           CLOUDY    57  43  60 N3        29.77S
YELLOWSTONE LA CLOUDY    41  36  82 W9        29.94S
SALMON         CLOUDY    50  46  86 CALM      29.88F
MULLAN PASS    FOG       36  36 100 W8G20     29.90S VSB M1/4 WCI  30
SAND POINT     CLOUDY    50  48  93 S9        29.88R
SPOKANE        PTCLDY    52  41  66 SW9       29.90R

$$




USA.gov is the U.S. government's official web portal to all federal, state and local government web resources and services.